Hourly Weather Abaetetuba

Today, 31 October, Saturday

Time Temperature Precipitation Wind Pressure Humidity
00:00 +26°C° 0 mm 2 mps 757 mmHg 83%
01:00 +26°C° 0 mm 2 mps 757 mmHg 86%
02:00 +26°C° 0 mm 2 mps 756 mmHg 88%
03:00 +25°C° 0 mm 2 mps 756 mmHg 90%
04:00 +25°C° 0 mm 2 mps 756 mmHg 92%
05:00 +25°C° 0 mm 2 mps 757 mmHg 94%
06:00 +25°C° 0 mm 2 mps 757 mmHg 95%
07:00 +27°C° 0 mm 2 mps 757 mmHg 84%
08:00 +29°C° 0 mm 3 mps 757 mmHg 73%
09:00 +33°C° 0 mm 3 mps 758 mmHg 62%
10:00 +34°C° 0 mm 3 mps 757 mmHg 54%
11:00 +36°C° 0 mm 3 mps 757 mmHg 46%
12:00 +38°C° 0 mm 3 mps 756 mmHg 38%
13:00 +38°C° 0 mm 3 mps 755 mmHg 38%
14:00 +38°C° 0 mm 3 mps 755 mmHg 39%
15:00 +38°C° 0 mm 4 mps 754 mmHg 39%
16:00 +36°C° 0 mm 4 mps 754 mmHg 48%
17:00 +34°C° 0 mm 4 mps 754 mmHg 58%
18:00 +32°C° 0 mm 5 mps 754 mmHg 67%
19:00 +30°C° 0 mm 5 mps 755 mmHg 70%
20:00 +30°C° 0 mm 5 mps 756 mmHg 73%
21:00 +29°C° 0 mm 4 mps 756 mmHg 77%
22:00 +28°C° 0 mm 4 mps 756 mmHg 79%
23:00 +28°C° 0 mm 4 mps 756 mmHg 82%

Tomorrow, 1 November, Sunday

Time Temperature Precipitation Wind Pressure Humidity
00:00 +27°C° 0 mm 3 mps 756 mmHg 84%
01:00 +27°C° 0 mm 3 mps 756 mmHg 87%
02:00 +26°C° 0 mm 3 mps 756 mmHg 89%
03:00 +26°C° 0 mm 2 mps 755 mmHg 92%
04:00 +26°C° 0 mm 2 mps 756 mmHg 93%
05:00 +25°C° 0 mm 2 mps 756 mmHg 94%
06:00 +25°C° 0 mm 2 mps 756 mmHg 95%
07:00 +27°C° 0 mm 2 mps 756 mmHg 85%
08:00 +29°C° 0 mm 2 mps 757 mmHg 75%
09:00 +33°C° 0 mm 3 mps 757 mmHg 65%
10:00 +34°C° 0 mm 3 mps 757 mmHg 57%
11:00 +36°C° 0 mm 3 mps 756 mmHg 49%
12:00 +38°C° 0 mm 3 mps 756 mmHg 41%
13:00 +38°C° 0 mm 3 mps 755 mmHg 41%
14:00 +38°C° 0 mm 3 mps 754 mmHg 42%
15:00 +37°C° 0 mm 3 mps 753 mmHg 42%
16:00 +36°C° 0 mm 3 mps 753 mmHg 50%
17:00 +34°C° 0 mm 3 mps 753 mmHg 57%
18:00 +32°C° 0 mm 4 mps 753 mmHg 65%
19:00 +30°C° 0.1 mm 4 mps 754 mmHg 69%
20:00 +30°C° 0.1 mm 4 mps 754 mmHg 73%
21:00 +29°C° 0.1 mm 4 mps 755 mmHg 77%
22:00 +29°C° 0.2 mm 4 mps 755 mmHg 79%
23:00 +28°C° 0.2 mm 4 mps 755 mmHg 80%

Day after tomorrow, 2 November, Monday

Time Temperature Precipitation Wind Pressure Humidity
00:00 +28°C° 0.2 mm 3 mps 755 mmHg 82%
01:00 +28°C° 0.5 mm 3 mps 755 mmHg 85%
02:00 +27°C° 0.5 mm 3 mps 755 mmHg 89%
03:00 +27°C° 0.5 mm 3 mps 755 mmHg 92%
04:00 +26°C° 0.5 mm 3 mps 755 mmHg 92%
05:00 +26°C° 0.5 mm 3 mps 755 mmHg 92%
06:00 +26°C° 0.5 mm 3 mps 755 mmHg 92%
07:00 +28°C° 0 mm 3 mps 756 mmHg 82%
08:00 +31°C° 0 mm 3 mps 756 mmHg 71%
09:00 +34°C° 0 mm 3 mps 756 mmHg 61%
10:00 +35°C° 0 mm 3 mps 756 mmHg 55%
11:00 +37°C° 0 mm 3 mps 755 mmHg 49%
12:00 +39°C° 0 mm 3 mps 755 mmHg 43%
13:00 +38°C° 0 mm 3 mps 754 mmHg 44%
14:00 +38°C° 0 mm 3 mps 753 mmHg 45%
15:00 +37°C° 0 mm 4 mps 752 mmHg 46%
16:00 +35°C° 0.1 mm 4 mps 753 mmHg 53%
17:00 +34°C° 0.1 mm 4 mps 753 mmHg 60%
18:00 +32°C° 0.1 mm 4 mps 753 mmHg 67%
19:00 +30°C° 0.1 mm 4 mps 754 mmHg 72%
20:00 +29°C° 0.1 mm 3 mps 754 mmHg 76%
21:00 +28°C° 0.1 mm 3 mps 755 mmHg 81%
22:00 +28°C° 0 mm 3 mps 755 mmHg 83%
23:00 +27°C° 0 mm 3 mps 755 mmHg 85%

3 November, Tuesday

Time Temperature Precipitation Wind Pressure Humidity
00:00 +27°C° 0 mm 2 mps 755 mmHg 87%
01:00 +27°C° 0 mm 2 mps 755 mmHg 89%
02:00 +26°C° 0 mm 2 mps 755 mmHg 91%
03:00 +26°C° 0 mm 1 mps 755 mmHg 93%
04:00 +26°C° 0 mm 1 mps 755 mmHg 93%
05:00 +26°C° 0 mm 2 mps 755 mmHg 93%
06:00 +26°C° 0 mm 2 mps 756 mmHg 94%
07:00 +28°C° 0 mm 2 mps 756 mmHg 83%
08:00 +30°C° 0 mm 2 mps 756 mmHg 73%
09:00 +32°C° 0 mm 2 mps 757 mmHg 63%
10:00 +35°C° 0 mm 3 mps 756 mmHg 56%
11:00 +37°C° 0 mm 3 mps 756 mmHg 49%
12:00 +39°C° 0 mm 3 mps 755 mmHg 43%
13:00 +38°C° 0 mm 3 mps 755 mmHg 45%
14:00 +37°C° 0 mm 3 mps 754 mmHg 47%
15:00 +37°C° 0 mm 3 mps 753 mmHg 49%
16:00 +35°C° 0.2 mm 4 mps 753 mmHg 56%
17:00 +34°C° 0.2 mm 4 mps 754 mmHg 63%
18:00 +32°C° 0.2 mm 4 mps 754 mmHg 70%
19:00 +30°C° 0.9 mm 4 mps 755 mmHg 77%
20:00 +28°C° 0.9 mm 4 mps 755 mmHg 83%
21:00 +27°C° 0.9 mm 3 mps 756 mmHg 89%
22:00 +27°C° 0.7 mm 3 mps 756 mmHg 90%
23:00 +26°C° 0.7 mm 3 mps 756 mmHg 92%

4 November, Wednesday

Time Temperature Precipitation Wind Pressure Humidity
00:00 +26°C° 0.7 mm 2 mps 757 mmHg 94%
01:00 +26°C° 0.9 mm 2 mps 756 mmHg 94%
02:00 +26°C° 0.9 mm 2 mps 756 mmHg 94%
03:00 +26°C° 0.9 mm 2 mps 756 mmHg 94%
04:00 +26°C° 0.3 mm 2 mps 756 mmHg 94%
05:00 +26°C° 0.3 mm 1 mps 756 mmHg 94%
06:00 +26°C° 0.3 mm 1 mps 757 mmHg 94%
07:00 +27°C° 1.6 mm 1 mps 757 mmHg 92%
08:00 +28°C° 1.6 mm 1 mps 758 mmHg 89%
09:00 +28°C° 1.6 mm 1 mps 759 mmHg 87%
10:00 +29°C° 1.2 mm 2 mps 758 mmHg 86%
11:00 +29°C° 1.2 mm 2 mps 758 mmHg 86%
12:00 +29°C° 1.2 mm 2 mps 758 mmHg 85%
13:00 +29°C° 0.5 mm 3 mps 758 mmHg 81%
14:00 +30°C° 0.5 mm 3 mps 757 mmHg 78%
15:00 +30°C° 0.5 mm 3 mps 756 mmHg 75%
16:00 +29°C° 0 mm 2 mps 756 mmHg 77%
17:00 +28°C° 0 mm 1 mps 756 mmHg 79%
18:00 +28°C° 0 mm 1 mps 756 mmHg 81%
19:00 +27°C° 0 mm 1 mps 756 mmHg 83%
20:00 +27°C° 0 mm 1 mps 757 mmHg 85%
21:00 +26°C° 0 mm 1 mps 757 mmHg 86%
22:00 +27°C° 0 mm 1 mps 757 mmHg 87%
23:00 +27°C° 0 mm 2 mps 757 mmHg 87%

5 November, Thursday

Time Temperature Precipitation Wind Pressure Humidity
00:00 +27°C° 0 mm 2 mps 757 mmHg 87%
01:00 +27°C° 0 mm 2 mps 756 mmHg 88%
02:00 +26°C° 0 mm 2 mps 756 mmHg 89%
03:00 +26°C° 0 mm 2 mps 755 mmHg 89%
04:00 +26°C° 0 mm 2 mps 755 mmHg 89%
05:00 +26°C° 0 mm 2 mps 755 mmHg 89%
06:00 +26°C° 0 mm 3 mps 755 mmHg 88%
07:00 +28°C° 0 mm 2 mps 756 mmHg 81%
08:00 +29°C° 0 mm 2 mps 756 mmHg 73%
09:00 +31°C° 0 mm 2 mps 757 mmHg 66%
10:00 +32°C° 0 mm 2 mps 756 mmHg 59%
11:00 +35°C° 0 mm 2 mps 756 mmHg 52%
12:00 +37°C° 0 mm 2 mps 756 mmHg 46%
13:00 +37°C° 0 mm 2 mps 755 mmHg 44%
14:00 +37°C° 0 mm 2 mps 754 mmHg 43%
15:00 +37°C° 0 mm 2 mps 753 mmHg 42%
16:00 +35°C° 0 mm 3 mps 753 mmHg 51%
17:00 +33°C° 0 mm 3 mps 753 mmHg 60%
18:00 +30°C° 0 mm 3 mps 753 mmHg 69%
19:00 +30°C° 0.1 mm 3 mps 753 mmHg 73%
20:00 +29°C° 0.1 mm 3 mps 754 mmHg 77%
21:00 +28°C° 0.1 mm 4 mps 755 mmHg 82%
22:00 +28°C° 0.1 mm 3 mps 755 mmHg 82%
23:00 +28°C° 0.1 mm 3 mps 755 mmHg 82%
Show more